AirNav   TITAN Aviation Fuels
 
 688 users online  

MU27 Woodfield Airpark Inc
Lockwood, Missouri, USA

GOING TO LOCKWOOD?


FAA INFORMATION EFFECTIVE 26 JANUARY 2023

Location

FAA Identifier: MU27
Lat/Long: 37-28-05.1650N 093-55-45.7740W
37-28.086083N 093-55.762900W
37.4681014,-93.9293817
(estimated)
Elevation: 1050 ft. / 320 m (estimated)
Variation: 05E (1985)
From city: 4 miles NE of LOCKWOOD, MO
Time zone: UTC -6 (UTC -5 during Daylight Saving Time)
Zip code: 65682

Airport Operations

Airport use: Private use. Permission required prior to landing
Activation date: 06/1981
Control tower: no
ARTCC: KANSAS CITY CENTER
FSS: COLUMBIA FLIGHT SERVICE STATION
Attendance: CONTINUOUS
Wind indicator: yes
Segmented circle: no

Nearby radio navigation aids

VOR radial/distance  VOR name  Freq  Var
SGFr279/29.2SPRINGFIELD VORTAC116.9004E

Airport Services

Runway Information

Runway E/W

Dimensions: 2600 x 120 ft. / 792 x 37 m
Surface: turf
RUNWAY E  RUNWAY W
Traffic pattern: leftleft
Obstructions: 4 ft. fencenone

Runway NE/SW

Dimensions: 1700 x 120 ft. / 518 x 37 m
Surface: turf
RUNWAY NE  RUNWAY SW
Traffic pattern: leftleft
Obstructions: 4 ft. fencenone

Airport Ownership and Management from official FAA records

Ownership: Privately-owned
Owner: WOODFIELD AIRPORT OWNERS LLC
22 WOODFIELD LN
GREENFIELD, MO 65661
Phone (253) 820-4967
Manager: DAVID KRAHN
22 WOODFIELD LN
GREENFIELD, MO 65661
Phone (253) 820-4967

Airport Operational Statistics

Aircraft based on the field: 2
Single engine airplanes: 2
    

Additional Remarks

FOR CD CTC SPRINGFIELD APCH AT 417-868-5620/5619.

Instrument Procedures

There are no published instrument procedures at MU27.

Some nearby airports with instrument procedures:

MO3 - Stockton Municipal Airport (13 nm NE)
KLLU - Lamar Municipal Airport (18 nm W)
M17 - Bolivar Municipal Airport (29 nm E)
KSGF - Springfield-Branson National Airport (29 nm SE)
KNVD - Nevada Municipal Airport (29 nm NW)
 
Loc | Ops | Rwys | IFR | FBO | Links
Com | Nav | Svcs | Stats | Notes
Area around MU27 (Woodfield Airpark Inc)
 
Road maps at: MapQuest Bing Google
 
Aerial photo
No photo
 
Sectional chart

 
Airport distance calculator
Flying to Woodfield Airpark Inc? Find the distance to fly.

From to MU27

Sunrise and sunset
Times for 29-Jan-2023
 Local
(UTC-6)
 Zulu
(UTC)
Morning civil twilight06:5512:55
Sunrise07:2313:23
Sunset17:3523:35
Evening civil twilight18:0300:03

Current date and time
Zulu (UTC)  29-Jan-2023 06:33:44
Local (UTC-6)  29-Jan-2023 00:33:44
 
METAR
KSGF 
30nm SE 
290552Z 16005KT 10SM BKN019 07/06 A2995 RMK AO2 SLP143 T00720056 10106 20072 401390017 53004
KJLN 
33nm SW 
290553Z AUTO 35016KT 10SM OVC012 06/02 A3000 RMK AO2 PRESRR SLP158 T00610022 10128 20061 401610061 53026
KHFJ 
34nm S 
290615Z AUTO 00000KT 10SM BKN012 07/07 A2996 RMK AO2
KPTS 
38nm W 
290615Z AUTO 35010KT 10SM OVC012 01/M01 A3003 RMK AO2 T00051011 PWINO
KFSK 
45nm NW 
290615Z AUTO 01011KT 10SM OVC013 M02/M04 A3006 RMK AO2 T10171042
TAF
KSGF 
30nm SE 
290520Z 2906/3006 18008KT P6SM BKN022 FM290700 31008KT P6SM VCSH BKN009 TEMPO 2907/2909 4SM -RA BR BKN007 FM290900 35011KT P6SM OVC008 FM291800 01011KT P6SM OVC008 FM292200 01010KT P6SM OVC010
KJLN 
33nm SW 
290520Z 2906/3006 35012KT P6SM BKN016 FM290900 36014KT P6SM BKN012 FM292100 02011KT P6SM BKN017 FM300000 02010KT P6SM OVC020
NOTAMs
Click for the latest NOTAMs
NOTAMs are issued by the DoD/FAA and will open in a separate window not controlled by AirNav.

 

 
 

Would you like to see your business listed on this page?

 If your business provides an interesting product or service to pilots, flight crews, aircraft, or users of the Woodfield Airpark Inc, you should consider listing it here.  To start the listing process, click on the button below
 
Add a business
 

Other Pages about Woodfield Airpark Inc

Update a link
 
Copyright © AirNav, LLC. All rights reserved. Privacy Policy  Contact